Content
SEND FEEDBACK

Daily
Averages
Monthly
Summary
Libya

TRIPOLI, LIBYA


Home > Africa > Libya
Elevation: 81 meters     Latitude: 32 40N     Longitude: 013 09E

WEATHER
 
SELECT A DAY
Number of Records: 167,293;   Date Range: 7/1/96 - 10/19/14
 
SHARE

PRINT THIS DATA

[ ← Previous Day ]
WEATHER ALMANAC - 25 APRIL, 2014
[ Next Day → ]
[ °F ]   °C
Weather ElementAverageHighLow
Temperature19.1 °C31 °C (2:50 pm)9 °C (5:50 am)
Dewpoint6.1 °C9.4 °C (2:00 am)0 °C (4:20 pm)
Humidity49.1 %88 % (2:50 am)9 % (2:00 pm)
Barometer1014.9 hPa1017.9 hPa (12:50 am)1011.2 hPa (8:20 pm)
Wind Speed7.6 km/h18.5 km/h (7:50 pm)
Weather ElementAverage
Visibility14.5 km
Wind DirectionSSE (143 °)

Weather ElementTotal
Precipitation---
Cooling Degree Days1.7 (Base 18.3)
Growing Degree Days10 (Base 10)
Averaged from 45 records on 25 April, 2014
WEATHER CONDITIONS BREAKOUT
WIND DIRECTION BREAKOUT
WEATHER BY HOUR - 25 APRIL, 2014
[ °F ]   °C
Local TimeTemperatureDewpointHumidityBarometerVisibilityWind DirectionWind SpeedGust SpeedPrecipitationEventsConditions
12:50 AM12 °C9 °C82 %1017.9 hPaSSW (200°)7.4 km/hClear
1:20 AM12 °C9 °C82 %1017.9 hPaSW (220°)5.6 km/hClear
1:50 AM12 °C9 °C82 %1017.9 hPaCalmClear
2:00 AM11.7 °C9.4 °C80 %1017.9 hPa9.7 kmCalm
2:20 AM12 °C9 °C82 %1017.3 hPaCalmClear
2:50 AM11 °C9 °C88 %1017.3 hPaCalmClear
3:20 AM10 °C8 °C87 %1017.9 hPaSW (230°)7.4 km/hClear
3:50 AM11 °C8 °C82 %1017.3 hPaWSW (240°)7.4 km/hClear
4:20 AM11 °C8 °C82 %1016.3 hPaSW (230°)7.4 km/hClear
4:50 AM10 °C7 °C82 %1016.3 hPaSW (230°)7.4 km/hClear
5:00 AM10.6 °C7.8 °C76 %1016.9 hPa9.7 kmSW (230°)7.4 km/h
5:20 AM10 °C7 °C82 %1016.3 hPaSSE (160°)7.4 km/hClear
5:50 AM9 °C7 °C87 %1016.3 hPaCalmClear
6:20 AM9 °C7 °C87 %1016.3 hPaCalmClear
6:50 AM9 °C6 °C82 %1017.3 hPaCalmClear
7:20 AM11 °C7 °C76 %1017.3 hPaCalmClear
7:50 AM13 °C7 °C67 %1017.3 hPaSSW (200°)7.4 km/hClear
8:00 AM13.3 °C6.7 °C55 %1017.3 hPa9.7 kmSSW (200°)7.4 km/h
8:20 AM17 °C6 °C48 %1017.3 hPaSSW (200°)9.3 km/hClear
8:50 AM20 °C5 °C37 %1017.3 hPaSSW (200°)7.4 km/h
10:50 AM25 °C8 °C34 %1017.3 hPaSSE (160°)14.8 km/hClear
11:00 AM25 °C5 °C17 %1017.3 hPa19.3 kmSSE (160°)14.8 km/h
11:50 AM27 °C5 °C24 %1016.3 hPaWest (260°)7.4 km/hClear
12:20 PM28 °C4 °C21 %1016.3 hPaSouth (180°)3.7 km/hClear
12:50 PM28 °C5 °C23 %1015.2 hPaNW (310°)5.6 km/hClear
1:50 PM30 °C2 °C17 %1014.2 hPaNW (320°)11.1 km/hClear
2:00 PM29.4 °C2.2 °C9 %1014.6 hPa19.3 kmNW (320°)11.1 km/h
2:50 PM31 °C1 °C15 %1012.2 hPaWest (280°)7.4 km/hClear
4:20 PM31 °C0 °C14 %1012.2 hPaESE (120°)11.1 km/hClear
4:50 PM29 °C5 °C22 %1012.2 hPaEast (80°)5.6 km/hClear
5:00 PM29.4 °C5.6 °C13 %1011.9 hPa19.3 kmEast (80°)5.6 km/h
5:20 PM28 °C6 °C25 %1012.2 hPaENE (60°)7.4 km/hClear
5:50 PM28 °C6 °C25 %1012.2 hPaEast (90°)9.3 km/hClear
6:20 PM27 °C5 °C24 %1012.2 hPaEast (90°)5.6 km/hClear
6:50 PM26 °C5 °C26 %1012.2 hPaESE (110°)9.3 km/hClear
7:50 PM23 °C6 °C33 %1012.2 hPaEast (100°)18.5 km/hClear
8:00 PM23.3 °C6.1 °C22 %1011.9 hPa9.7 kmEast (100°)18.5 km/h
8:20 PM22 °C6 °C35 %1011.2 hPaEast (100°)14.8 km/hClear
8:50 PM21 °C6 °C38 %1012.2 hPaEast (100°)11.1 km/hClear
9:50 PM20 °C6 °C40 %1012.2 hPaESE (110°)11.1 km/hClear
10:20 PM19 °C6 °C43 %1012.2 hPaEast (100°)7.4 km/hClear
10:50 PM19 °C6 °C43 %1012.2 hPaSE (130°)9.3 km/hClear
11:00 PM18.3 °C6.1 °C33 %1012.2 hPa19.3 kmSE (130°)9.3 km/h
11:20 PM18 °C6 °C45 %1011.2 hPaESE (120°)9.3 km/hClear
11:50 PM18 °C5 °C42 %1011.2 hPaSE (140°)14.8 km/hClear
Hourly data recorded from HLLT, located 0 kilometers away from Tripoli, Libya







STORIES FROM OUR PARTNERS